[[{"header":{"parameterUnit":"m.s-1","parameterCategory":1,"la1":30.2991,"la2":30.254,"lo1":-89.0895,"lo2":-89.0444,"dy":0.0017,"dx":0.0017,"nx":28,"ny":28,"refTime":"2025-02-05T03:00:00:Z","depth":0,"parameterNumber":2,"parameterNumberName":"U-component_of_WINDS"},"data":[0,0,0,0,0,0,0,0,0,0,0,0,0,0,0,0,0,0,0,0,0,0,0,0,0,0,0,0,0,0,0,0,0,0,0,0,0,0,0,0,0,0,0,0,0,0,0,0,0,0,0,0,0,0,0,0,0,0,-0.7304,-0.7304,0,-0.7275,-0.7275,-0.7275,-0.7238,-0.7238,-0.7237,-0.7236,-0.7206,-0.7206,-0.7206,0,0,0,0,0,0,0,0,0,0,0,0,0,-0.7328,-0.7328,-0.7304,-0.7304,-0.7304,-0.7276,-0.7275,-0.7275,-0.7238,-0.7238,-0.7237,-0.7236,-0.7206,-0.7206,-0.7206,0,0,0,0,0,0,0,0,0,0,0,0,0,-0.731,-0.7328,-0.7304,-0.7282,-0.728,-0.7276,-0.7275,-0.7275,-0.7238,-0.7238,-0.7237,-0.7236,-0.7206,-0.7206,-0.7205,-0.7221,0,0,-0.7204,-0.7204,0,0,0,0,0,0,0,0,-0.7311,-0.731,-0.7286,-0.7284,-0.7281,-0.726,-0.7272,-0.7256,-0.7239,-0.7254,-0.7236,-0.7235,-0.7225,-0.7223,-0.7219,-0.7219,-0.7218,-0.7204,-0.7204,-0.7204,-0.7204,0,0,0,0,0,0,0,-0.7313,-0.7311,-0.7293,-0.7285,-0.7283,-0.7274,-0.727,-0.7269,-0.7245,-0.7253,-0.725,-0.7247,-0.7223,-0.722,-0.7218,-0.7217,-0.7204,-0.7204,-0.7204,-0.7203,-0.723,-0.723,0,0,0,0,0,0,-0.7317,-0.7312,-0.7294,-0.7292,-0.7294,-0.7274,-0.727,-0.7267,-0.7244,-0.724,-0.7248,-0.7246,-0.7221,-0.7219,-0.7217,-0.7234,-0.7204,-0.7203,-0.7203,-0.7229,-0.723,-0.7231,0,0,0,0,0,0,-0.7318,-0.7316,-0.7295,-0.7301,-0.7298,-0.7274,-0.7272,-0.7267,-0.7264,-0.7241,-0.7236,-0.7249,-0.722,-0.7217,-0.722,-0.7232,-0.7203,-0.7203,-0.7228,-0.7229,-0.723,-0.7267,0,0,0,0,0,0,-0.7319,-0.7316,-0.7322,-0.7302,-0.7298,-0.7299,-0.7272,-0.7267,-0.7263,-0.726,-0.724,-0.7236,-0.7219,-0.7221,-0.722,-0.7231,-0.7203,-0.7226,-0.7228,-0.723,-0.7264,-0.7269,-0.7273,0,0,0,0,0,-0.732,-0.7333,-0.7322,-0.732,-0.7304,-0.73,-0.7297,-0.7277,-0.7264,-0.727,-0.7255,-0.7237,-0.7231,-0.7222,-0.722,-0.7231,-0.7226,-0.7228,-0.723,-0.7262,-0.7268,-0.7273,0,0,0,0,0,0,-0.7355,-0.733,-0.7318,-0.7325,-0.7315,-0.7293,-0.7299,-0.7284,-0.7277,-0.7274,-0.7249,-0.7245,-0.7251,-0.7241,-0.7231,-0.7245,-0.7226,-0.7228,-0.7251,-0.7257,-0.7261,-0.7263,-0.7202,0,0,0,0,0,-0.7363,-0.7362,-0.734,-0.7349,-0.7344,-0.7323,-0.732,-0.7306,-0.7294,-0.729,-0.7275,-0.7265,-0.726,-0.7258,-0.7253,-0.7263,-0.7259,-0.727,-0.7275,-0.7278,-0.728,-0.7286,-0.7291,-0.7238,-0.7238,-0.7238,0,0,-0.7381,-0.7367,-0.7368,-0.7355,-0.7346,-0.7345,-0.7319,-0.7319,-0.7319,-0.7289,-0.7291,-0.7281,-0.7267,-0.7274,-0.7276,-0.7266,-0.7294,-0.7281,-0.7284,-0.7284,-0.7288,-0.7293,-0.7298,-0.7239,-0.7239,-0.7239,0,0,-0.7412,-0.7402,-0.7408,-0.7399,-0.7385,-0.7371,-0.7373,-0.7354,-0.7346,-0.7348,-0.7326,-0.7325,-0.7318,-0.731,-0.7304,-0.7334,-0.7318,-0.7333,-0.7357,-0.7362,-0.7367,-0.737,-0.7381,-0.7386,-0.7335,-0.7336,-0.7336,0,-0.7436,-0.7434,-0.7413,-0.7415,-0.741,-0.7384,-0.7391,-0.7383,-0.7368,-0.7366,-0.7354,-0.7346,-0.7335,-0.734,-0.7347,-0.7344,-0.7345,-0.7335,-0.7368,-0.7371,-0.7374,-0.7384,-0.7389,-0.7338,-0.7337,-0.7337,-0.7337,0,-0.7464,-0.7463,-0.7469,-0.7456,-0.7452,-0.7456,-0.7436,-0.7435,-0.7422,-0.7409,-0.7411,-0.7398,-0.739,-0.739,-0.7376,-0.7393,-0.7387,-0.7372,-0.7352,-0.7382,-0.7391,-0.7395,-0.734,-0.734,-0.7339,-0.7339,0,0,-0.7515,-0.7491,-0.7494,-0.7488,-0.7472,-0.7471,-0.7474,-0.7467,-0.7466,-0.7457,-0.7459,-0.7455,-0.7441,-0.7436,-0.7421,-0.7426,-0.7451,-0.741,-0.741,-0.7419,-0.747,-0.7481,-0.7486,-0.7441,-0.7441,-0.7442,-0.7471,0,-0.7544,-0.7548,-0.753,-0.7538,-0.7538,-0.7514,-0.7517,-0.7507,-0.7496,-0.7494,-0.7481,-0.7478,-0.746,-0.7457,-0.7461,-0.7447,-0.7461,-0.7445,-0.7442,-0.7443,-0.7446,-0.7491,-0.7502,-0.7531,-0.7475,-0.7475,-0.7476,0,-0.7577,-0.757,-0.758,-0.7564,-0.7563,-0.7565,-0.7558,-0.7556,-0.7545,-0.7536,-0.7531,-0.7514,-0.7516,-0.7498,-0.7501,-0.749,-0.7488,-0.7482,-0.7482,-0.7481,-0.7461,-0.7491,-0.7539,-0.7544,-0.7481,-0.7481,-0.748,0,-0.7614,-0.7607,-0.7612,-0.7608,-0.7589,-0.7592,-0.7584,-0.7573,-0.757,-0.7563,-0.7561,-0.7555,-0.7551,-0.7547,-0.7529,-0.7517,-0.7535,-0.7514,-0.7528,-0.7528,-0.7532,-0.7532,-0.7581,-0.7531,-0.7531,-0.7531,-0.7531,0,-0.7647,-0.7654,-0.7629,-0.7632,-0.7639,-0.7618,-0.7625,-0.7615,-0.7605,-0.7606,-0.7585,-0.7586,-0.7563,-0.7562,-0.7548,-0.7553,-0.7552,-0.7545,-0.7541,-0.7547,-0.7548,-0.7545,-0.7542,-0.7532,-0.7532,-0.7532,-0.7531,0,-0.7689,-0.7673,-0.7677,-0.7659,-0.7655,-0.7661,-0.7646,-0.7648,-0.7636,-0.7637,-0.7636,-0.7617,-0.7615,-0.7597,-0.759,-0.7581,-0.7591,-0.7584,-0.7595,-0.7593,-0.7607,-0.7606,-0.7656,-0.7661,-0.7608,-0.7609,-0.7609,0,-0.7712,-0.7716,-0.77,-0.7699,-0.7692,-0.7691,-0.7689,-0.7669,-0.7667,-0.7656,-0.7659,-0.7655,-0.7651,-0.7648,-0.7634,-0.7629,-0.7621,-0.7639,-0.762,-0.7626,-0.7621,-0.7621,-0.7622,-0.7643,-0.7643,-0.7644,-0.7644,0,-0.7753,-0.7745,-0.7742,-0.7736,-0.7734,-0.7728,-0.7721,-0.7722,-0.7701,-0.7699,-0.7697,-0.7694,-0.7688,-0.7684,-0.7677,-0.7669,-0.7653,-0.7651,-0.7653,-0.7659,-0.7665,-0.7662,-0.7606,-0.7649,-0.7649,-0.7648,-0.7648,-0.7648,-0.7786,-0.7789,-0.7778,-0.7776,-0.7769,-0.7763,-0.7765,-0.7753,-0.7751,-0.7745,-0.7733,-0.7733,-0.7723,-0.7712,-0.7705,-0.7705,-0.7695,-0.7699,-0.77,-0.7702,-0.7705,-0.7666,-0.7703,-0.7703,-0.7703,-0.7703,-0.7703,0,-0.7826,-0.7818,-0.7816,-0.7808,-0.7806,-0.7792,-0.7784,-0.7784,-0.7784,-0.7776,-0.7772,-0.777,-0.7767,-0.7753,-0.7748,-0.7751,-0.7743,-0.775,-0.775,-0.7748,-0.7713,-0.7711,-0.7756,-0.7756,-0.7756,-0.7756,-0.7756,-0.7756,-0.7847,-0.7852,-0.7843,-0.7845,-0.7837,-0.7836,-0.7833,-0.7828,-0.7822,-0.782,-0.7818,-0.7809,-0.7799,-0.7793,-0.779,-0.7786,-0.7785,-0.7794,-0.7788,-0.7756,-0.775,-0.7746,-0.7744,-0.7795,-0.7795,-0.7823,-0.7823,-0.7823]},{"header":{"parameterUnit":"m.s-1","parameterCategory":1,"la1":30.2991,"la2":30.254,"lo1":-89.0895,"lo2":-89.0444,"dy":0.0017,"dx":0.0017,"nx":28,"ny":28,"refTime":"2025-02-05T03:00:00:Z","depth":0,"parameterNumber":3,"parameterNumberName":"V-component_of_WINDS"},"data":[0,0,0,0,0,0,0,0,0,0,0,0,0,0,0,0,0,0,0,0,0,0,0,0,0,0,0,0,0,0,0,0,0,0,0,0,0,0,0,0,0,0,0,0,0,0,0,0,0,0,0,0,0,0,0,0,0,0,0.7629,0.7629,0,0.7599,0.7599,0.7598,0.7584,0.7584,0.7584,0.7584,0.7551,0.755,0.7549,0,0,0,0,0,0,0,0,0,0,0,0,0,0.7672,0.7672,0.7629,0.7629,0.7628,0.7599,0.7599,0.7598,0.7584,0.7584,0.7584,0.7584,0.7551,0.755,0.7549,0,0,0,0,0,0,0,0,0,0,0,0,0,0.7649,0.7671,0.7629,0.7618,0.7617,0.7599,0.7599,0.7598,0.7584,0.7584,0.7584,0.7584,0.7551,0.755,0.7549,0.7539,0,0,0.7544,0.7544,0,0,0,0,0,0,0,0,0.765,0.7647,0.762,0.7619,0.7617,0.7595,0.7601,0.7578,0.7584,0.7596,0.7584,0.7584,0.7565,0.7563,0.7557,0.7538,0.7536,0.7544,0.7543,0.7543,0.7542,0,0,0,0,0,0,0,0.7652,0.7649,0.7617,0.762,0.7618,0.7614,0.761,0.7597,0.7581,0.7595,0.7594,0.7591,0.7565,0.7558,0.7556,0.7536,0.7544,0.7543,0.7542,0.7542,0.7507,0.7507,0,0,0,0,0,0,0.7656,0.765,0.7618,0.7616,0.7634,0.7613,0.7609,0.7602,0.7581,0.7578,0.7591,0.759,0.7561,0.7558,0.7555,0.7542,0.7543,0.7542,0.7541,0.7507,0.7507,0.7507,0,0,0,0,0,0,0.7657,0.7653,0.7619,0.7633,0.7628,0.7612,0.7604,0.7602,0.7595,0.7578,0.7575,0.7588,0.7561,0.7557,0.7543,0.7541,0.7541,0.754,0.7507,0.7507,0.7507,0.7517,0,0,0,0,0,0,0.7658,0.7653,0.765,0.7633,0.7628,0.7609,0.7604,0.7601,0.7593,0.7592,0.7574,0.7571,0.756,0.7545,0.7542,0.7539,0.7539,0.7507,0.7507,0.7507,0.7517,0.7517,0.7518,0,0,0,0,0,0.766,0.7654,0.765,0.7646,0.7623,0.7609,0.7606,0.7595,0.7593,0.759,0.7578,0.7571,0.7542,0.7544,0.754,0.7537,0.7507,0.7507,0.7507,0.7517,0.7517,0.7518,0,0,0,0,0,0,0.7671,0.7651,0.7647,0.7636,0.7624,0.7607,0.7602,0.7596,0.7583,0.7583,0.7569,0.7565,0.7552,0.7543,0.7546,0.7526,0.7524,0.7523,0.7533,0.7533,0.7534,0.7536,0.7537,0,0,0,0,0,0.7672,0.7663,0.7646,0.7638,0.7632,0.7618,0.7611,0.7604,0.7591,0.7586,0.7573,0.756,0.7548,0.754,0.7528,0.7516,0.7511,0.7511,0.7512,0.7512,0.7511,0.7504,0.7504,0.7506,0.7506,0.7506,0,0,0.7674,0.7663,0.7657,0.764,0.763,0.762,0.7614,0.7604,0.7596,0.7584,0.7571,0.7561,0.7545,0.7533,0.7526,0.7524,0.751,0.7512,0.7512,0.7511,0.7504,0.7503,0.7503,0.7506,0.7506,0.7506,0,0,0.7673,0.7664,0.7656,0.7646,0.7632,0.7622,0.762,0.7604,0.7597,0.7584,0.7575,0.7565,0.7544,0.7533,0.7525,0.752,0.7513,0.7516,0.7518,0.7511,0.7511,0.7511,0.7509,0.7508,0.7516,0.7516,0.7516,0,0.7678,0.7663,0.7652,0.7643,0.7635,0.7624,0.7616,0.7606,0.7588,0.7583,0.7581,0.7555,0.7544,0.7528,0.7527,0.7521,0.7518,0.7518,0.7512,0.7512,0.7511,0.7509,0.7509,0.7516,0.7516,0.7516,0.7516,0,0.7669,0.7659,0.7654,0.7638,0.763,0.762,0.7607,0.76,0.7593,0.7584,0.757,0.7556,0.7541,0.7537,0.7529,0.752,0.7519,0.7515,0.7512,0.7512,0.751,0.7509,0.7517,0.7517,0.7516,0.7516,0,0,0.7674,0.7652,0.7651,0.7643,0.7626,0.7618,0.7608,0.7594,0.7588,0.7575,0.7566,0.7549,0.7545,0.7536,0.7527,0.7521,0.7518,0.7518,0.7517,0.7518,0.7506,0.751,0.7509,0.7514,0.7513,0.7513,0.7508,0,0.7671,0.7654,0.7644,0.763,0.7621,0.761,0.7602,0.759,0.7581,0.757,0.756,0.7548,0.7544,0.7538,0.7532,0.752,0.7515,0.752,0.7504,0.7504,0.7509,0.7508,0.7511,0.7507,0.7507,0.7507,0.7507,0,0.7665,0.7654,0.764,0.7624,0.762,0.7612,0.7598,0.7589,0.7575,0.7569,0.7559,0.755,0.7538,0.7537,0.752,0.7523,0.7516,0.7509,0.7509,0.7507,0.7505,0.7506,0.7505,0.7504,0.7505,0.7505,0.7505,0,0.767,0.7651,0.7641,0.7634,0.7616,0.7611,0.7603,0.7589,0.7581,0.7569,0.7563,0.7549,0.7542,0.7531,0.7518,0.7518,0.7503,0.75,0.7497,0.7497,0.7494,0.7494,0.7492,0.7489,0.7489,0.7489,0.7489,0,0.7667,0.7659,0.7643,0.7636,0.7626,0.7614,0.7605,0.7595,0.7583,0.7574,0.7564,0.7555,0.754,0.7529,0.7519,0.7507,0.7503,0.7497,0.7495,0.7498,0.7499,0.7493,0.7493,0.7489,0.7489,0.7489,0.7489,0,0.7671,0.766,0.7648,0.7631,0.7627,0.762,0.7606,0.7599,0.7589,0.7577,0.7574,0.7559,0.7545,0.7532,0.7514,0.7507,0.7495,0.7491,0.75,0.7498,0.7496,0.7496,0.749,0.7488,0.7487,0.7487,0.7487,0,0.767,0.7664,0.7647,0.7641,0.7633,0.7623,0.7615,0.7603,0.7595,0.7578,0.7573,0.7559,0.7547,0.7527,0.7513,0.7499,0.7495,0.7494,0.7493,0.7497,0.7495,0.7495,0.7495,0.7494,0.7494,0.7494,0.7494,0,0.767,0.7664,0.7654,0.7642,0.7633,0.7622,0.7611,0.7606,0.7592,0.7583,0.757,0.7561,0.7543,0.7529,0.7514,0.7504,0.7497,0.7495,0.7493,0.7497,0.7502,0.7499,0.7501,0.7495,0.7495,0.7495,0.7495,0.7495,0.7671,0.7665,0.7652,0.7641,0.7631,0.7621,0.7614,0.7604,0.7593,0.7578,0.7571,0.7557,0.7543,0.7522,0.7512,0.7501,0.7499,0.7497,0.7496,0.7496,0.7497,0.7504,0.7498,0.7498,0.7498,0.7498,0.7498,0,0.767,0.7661,0.7651,0.7636,0.7627,0.7622,0.7609,0.7602,0.7591,0.7579,0.7568,0.7552,0.7539,0.7525,0.751,0.7504,0.75,0.75,0.7501,0.7498,0.7499,0.7502,0.7504,0.7504,0.7504,0.7504,0.7504,0.7504,0.7668,0.7657,0.7651,0.7635,0.7626,0.7614,0.7607,0.7597,0.7588,0.7571,0.7561,0.7552,0.7538,0.7523,0.751,0.7506,0.7501,0.7503,0.7498,0.7499,0.7498,0.7498,0.7501,0.7502,0.7502,0.7497,0.7497,0.7497]}]]